TimeCET,TemperatureF,Dew PointF,Humidity,Sea Level PressureIn,VisibilityMPH,Wind Direction,Wind SpeedMPH,Gust SpeedMPH,PrecipitationIn,Events,Conditions,WindDirDegrees,DateUTC
12:15 AM,42.8,37.4,81,30.04,6.2,West,11.2,-,N/A,Rain,Light Rain Showers,270,2013-01-04 23:15:00
12:45 AM,42.8,39.2,87,30.01,6.2,West,11.2,-,N/A,Rain,Light Rain Showers,270,2013-01-04 23:45:00
1:45 AM,42.8,39.2,87,30.01,6.2,WSW,8.9,-,N/A,Rain,Light Rain,250,2013-01-05 00:45:00
2:15 AM,41.0,39.2,93,29.98,5.0,WSW,6.7,-,N/A,,Overcast,250,2013-01-05 01:15:00
2:45 AM,42.8,41.0,93,29.95,5.0,WSW,4.5,-,N/A,,Overcast,250,2013-01-05 01:45:00
3:15 AM,42.8,41.0,93,29.92,6.2,WNW,8.9,-,N/A,,Overcast,290,2013-01-05 02:15:00
3:45 AM,42.8,41.0,93,29.92,-9999.0,West,8.9,-,N/A,,Clear,280,2013-01-05 02:45:00
4:15 AM,42.8,41.0,93,29.89,-9999.0,WNW,11.2,-,N/A,,Clear,300,2013-01-05 03:15:00
4:45 AM,42.8,41.0,93,29.89,-9999.0,WNW,8.9,-,N/A,,Clear,300,2013-01-05 03:45:00
5:15 AM,42.8,39.2,87,29.89,-9999.0,NNW,8.9,-,N/A,,Clear,330,2013-01-05 04:15:00
5:45 AM,41.0,39.2,93,29.89,3.7,NNW,6.7,-,N/A,,Mostly Cloudy,330,2013-01-05 04:45:00
6:15 AM,39.2,37.4,93,29.92,3.7,North,4.5,-,N/A,,Unknown,350,2013-01-05 05:15:00
6:45 AM,37.4,35.6,93,29.92,3.7,North,4.5,-,N/A,,Unknown,350,2013-01-05 05:45:00
7:15 AM,37.4,35.6,93,29.92,3.7,North,4.5,-,N/A,,Unknown,360,2013-01-05 06:15:00
7:45 AM,37.4,37.4,100,29.95,3.7,North,4.5,-,N/A,,Unknown,360,2013-01-05 06:45:00
8:15 AM,41.0,37.4,87,29.95,-9999.0,NNW,2.2,-,N/A,,Clear,340,2013-01-05 07:15:00
8:45 AM,-9999,-9999,N/A,-9999,6.2,North,6.7,-,N/A,,Mostly Cloudy,350,2013-01-05 07:45:00
9:15 AM,41.0,37.4,87,29.95,-9999.0,NW,4.5,-,N/A,,Clear,320,2013-01-05 08:15:00
9:32 AM,41.0,37.4,87,29.95,6.2,NNW,4.5,-,N/A,Rain,Light Rain Showers,330,2013-01-05 08:32:00
9:40 AM,-9999,-9999,N/A,-9999,6.2,NNW,11.2,-,N/A,,Mostly Cloudy,330,2013-01-05 08:40:00
9:45 AM,41.0,39.2,93,29.98,6.2,NNW,2.2,-,N/A,Rain,Light Rain Showers,330,2013-01-05 08:45:00
10:15 AM,41.0,39.2,93,29.98,6.2,NNE,2.2,-,N/A,Rain,Light Rain Showers,30,2013-01-05 09:15:00
10:45 AM,41.0,39.2,93,29.98,6.2,NNE,2.2,-,N/A,,Mostly Cloudy,20,2013-01-05 09:45:00
11:15 AM,41.0,39.2,93,29.98,6.2,NNW,4.5,-,N/A,,Mostly Cloudy,330,2013-01-05 10:15:00
11:45 AM,-9999,-9999,N/A,-9999,6.2,NNW,11.2,-,N/A,,Mostly Cloudy,340,2013-01-05 10:45:00
12:15 PM,42.8,39.2,87,29.95,6.2,Calm,Calm,-,N/A,,Mostly Cloudy,0,2013-01-05 11:15:00
12:45 PM,42.8,39.2,87,29.95,6.2,Variable,2.2,-,N/A,,Mostly Cloudy,0,2013-01-05 11:45:00
1:15 PM,42.8,39.2,87,29.95,6.2,Variable,2.2,-,N/A,,Mostly Cloudy,0,2013-01-05 12:15:00
1:45 PM,44.6,39.2,81,29.95,6.2,Variable,2.2,-,N/A,,Mostly Cloudy,0,2013-01-05 12:45:00
2:15 PM,44.6,37.4,76,29.95,6.2,South,2.2,-,N/A,,Mostly Cloudy,190,2013-01-05 13:15:00
2:45 PM,-9999,-9999,N/A,-9999,6.2,NNW,11.2,-,N/A,,Mostly Cloudy,330,2013-01-05 13:45:00
3:15 PM,42.8,37.4,81,29.95,6.2,SW,6.7,-,N/A,,Scattered Clouds,220,2013-01-05 14:15:00
3:45 PM,42.8,37.4,81,29.95,6.2,SW,6.7,-,N/A,,Scattered Clouds,230,2013-01-05 14:45:00
4:15 PM,44.6,32.0,61,29.95,6.2,NW,17.9,-,N/A,,Scattered Clouds,310,2013-01-05 15:15:00
4:45 PM,44.6,32.0,61,29.98,6.2,NW,13.4,-,N/A,,Scattered Clouds,320,2013-01-05 15:45:00
5:07 PM,42.8,32.0,66,29.98,6.2,North,15.7,29.1,N/A,,Scattered Clouds,10,2013-01-05 16:07:00
5:15 PM,41.0,33.8,76,30.01,6.2,NE,15.7,26.8,N/A,,Scattered Clouds,40,2013-01-05 16:15:00
5:20 PM,-9999,-9999,N/A,-9999,6.2,NNW,11.2,-,N/A,,Mostly Cloudy,330,2013-01-05 16:20:00
5:45 PM,-9999,-9999,N/A,-9999,6.2,North,11.2,-,N/A,,Clear,350,2013-01-05 16:45:00
6:15 PM,35.6,32.0,87,30.04,-9999.0,ENE,4.5,-,N/A,,Clear,60,2013-01-05 17:15:00
6:45 PM,33.8,30.2,87,30.04,-9999.0,NE,4.5,-,N/A,,Clear,50,2013-01-05 17:45:00
7:15 PM,35.6,32.0,87,30.06,-9999.0,ENE,2.2,-,N/A,,Clear,70,2013-01-05 18:15:00
7:45 PM,33.8,28.4,81,30.06,-9999.0,NE,2.2,-,N/A,,Clear,40,2013-01-05 18:45:00
8:15 PM,32.0,26.6,80,30.06,-9999.0,NNE,6.7,-,N/A,,Clear,30,2013-01-05 19:15:00
8:45 PM,-9999,-9999,N/A,-9999,3.1,North,8.9,-,N/A,,Clear,360,2013-01-05 19:45:00
9:15 PM,33.8,24.8,70,30.09,-9999.0,NW,6.7,-,N/A,,Clear,320,2013-01-05 20:15:00
9:45 PM,33.8,24.8,70,30.09,-9999.0,NW,6.7,-,N/A,,Clear,320,2013-01-05 20:45:00
10:15 PM,33.8,23.0,65,30.09,-9999.0,North,6.7,-,N/A,,Clear,350,2013-01-05 21:15:00
10:45 PM,33.8,23.0,65,30.12,-9999.0,North,6.7,-,N/A,,Clear,350,2013-01-05 21:45:00
11:15 PM,32.0,24.8,75,30.12,-9999.0,WNW,6.7,-,N/A,,Clear,300,2013-01-05 22:15:00
11:45 PM,-9999,-9999,N/A,-9999,3.1,North,-9999.0,-,N/A,,Mist,0,2013-01-05 22:45:00